Theta_e
282 282 282 282 281 282 282 282 283 283 283 282 280 280 280 281 280 281 283 283 283 283 282 282 281 281 281 281 283 284 285 287 292 292 293 294 296 296 299 303 305 314 321
280 282 281 281 281 281 282 282 282 282 283 282 281 281 280 280 280 281 280 281 282 281 281 281 280 280 280 281 282 284 286 288 291 289 290 288 290 294 297 300 305 312 320
281 281 280 280 280 280 281 282 282 282 282 281 281 280 280 278 277 277 278 279 281 281 280 280 279 279 280 280 281 280 280 281 286 290 291 286 285 289 296 300 306 313 318
282 282 281 279 279 280 281 281 281 281 282 281 279 277 276 275 276 277 277 278 279 279 280 280 279 279 280 278 278 280 280 281 280 286 291 294 292 287 285 294 297 301 302
282 281 281 281 280 281 280 280 280 280 280 279 278 276 276 276 276 276 276 276 277 279 279 279 278 278 278 277 277 277 278 281 281 283 285 288 291 292 289 286 290 298 302
281 281 281 281 280 280 280 279 279 278 279 278 277 275 274 274 274 274 274 275 276 277 278 278 277 277 277 276 276 277 279 278 278 278 281 285 287 288 289 288 290 292 295
280 280 280 280 279 279 279 279 278 277 277 276 275 274 273 273 272 273 273 273 274 275 275 276 276 276 276 276 276 277 275 276 276 277 282 286 287 292 291 290 289 291 295
280 280 281 280 279 279 278 278 277 275 275 274 274 273 273 273 273 273 273 272 273 274 275 275 275 276 276 276 276 275 276 278 277 277 280 284 286 289 292 290 290 289 291
279 280 280 280 278 278 278 277 275 275 274 273 273 272 271 271 271 271 272 272 273 274 274 275 274 274 275 275 275 274 274 274 275 275 276 278 283 286 293 293 292 291 287
278 279 280 279 278 278 277 275 274 273 273 273 271 271 270 270 270 270 270 271 272 272 273 273 273 273 274 274 274 274 274 273 274 276 276 279 283 284 291 293 294 294 292
278 279 279 279 278 277 275 274 273 272 272 271 271 270 270 270 270 269 270 270 271 271 271 272 272 272 272 273 273 273 273 272 273 273 273 275 278 282 287 292 293 294 295
278 279 279 277 276 275 274 273 272 271 271 270 270 269 269 269 268 268 269 270 270 270 270 270 270 270 270 271 271 271 272 271 271 272 273 274 279 282 284 291 291 292 294
276 277 277 277 276 274 273 271 270 270 270 269 268 268 267 267 267 268 268 269 269 269 269 269 268 268 269 269 270 270 270 271 271 271 271 273 276 279 282 289 289 291 294
277 277 277 276 275 274 272 270 269 269 268 267 266 266 267 267 267 267 267 267 267 266 266 267 267 267 267 268 269 269 270 270 271 272 272 273 275 278 281 284 287 289 289
276 277 277 275 273 272 270 269 267 267 267 266 266 266 266 266 266 266 266 266 265 265 265 265 265 265 266 267 267 269 270 270 270 271 272 273 277 279 282 283 286 288 287
277 277 277 276 274 273 269 270 267 267 267 265 266 266 265 265 264 264 264 263 263 263 263 264 264 264 266 270 272 273 272 272 272 273 274 275 276 279 282 284 287 289 286
277 277 276 276 274 272 271 266 266 266 265 266 264 263 264 262 262 262 262 261 261 262 263 263 263 264 265 269 272 274 273 273 273 273 273 274 276 278 281 284 287 289 292
277 277 276 272 270 268 267 266 266 265 265 264 262 262 262 261 261 260 259 260 261 262 262 262 263 264 265 270 272 273 273 273 274 274 274 274 275 277 280 283 284 285 286
278 277 273 270 268 266 266 265 265 264 263 262 261 261 260 258 258 256 258 259 261 260 260 263 262 262 263 269 272 273 273 274 275 275 274 274 275 278 281 281 281 283 285
275 271 270 268 266 265 265 265 264 262 261 261 260 260 259 256 256 257 257 260 259 261 262 262 262 263 263 269 272 273 272 273 274 275 275 276 275 278 282 281 282 281 283
270 269 268 266 266 265 264 263 262 261 260 260 259 258 258 256 256 257 258 258 259 260 260 262 263 265 266 267 271 274 272 271 271 273 276 275 278 280 282 284 283 283 286
269 267 266 265 265 264 264 262 261 260 259 258 257 255 254 254 258 256 256 258 258 259 260 262 263 265 266 268 271 272 274 274 272 273 276 276 279 281 284 284 286 287 287
268 268 265 263 263 263 262 262 260 259 257 253 252 250 254 256 257 255 257 257 259 260 261 263 262 263 266 267 270 271 274 274 273 274 275 278 280 282 283 285 288 286 287
267 266 264 262 260 261 260 259 258 257 251 251 254 256 256 255 257 258 259 258 259 260 263 262 262 262 265 265 268 270 270 272 271 272 272 274 277 280 282 283 287 286 286
266 266 265 263 260 259 257 257 255 253 253 254 256 255 254 253 256 258 257 260 262 265 264 263 264 263 263 266 271 270 268 269 271 273 272 272 275 276 282 284 285 285 286
266 265 264 262 260 259 257 254 252 251 250 254 254 254 254 254 256 256 256 262 265 266 267 268 267 266 269 271 271 270 270 270 270 268 269 272 273 274 281 283 284 285 285
Wind_Speed
8 9 9 8 7 6 7 5 2 2 1 1 2 3 4 4 3 3 5 6 5 6 6 5 8 8 8 9 10 10 12 10 10 12 13 13 14 15 15 12 13 15 18
13 15 12 8 8 8 7 5 3 3 3 2 3 3 3 4 4 3 5 5 5 6 7 5 7 8 8 9 9 10 10 12 8 11 12 13 11 9 14 14 14 17 14
19 14 13 10 8 8 8 7 3 3 3 3 2 2 3 3 2 3 4 3 5 6 7 6 7 9 8 8 7 10 13 13 10 12 11 7 8 7 3 7 6 12 11
16 16 16 10 9 8 7 6 3 3 3 2 2 2 2 3 3 4 4 6 6 7 6 6 7 10 7 8 8 9 10 11 14 11 12 17 14 11 13 6 6 4 4
20 20 18 14 8 8 8 6 2 3 3 3 2 2 5 4 4 4 6 7 6 6 7 7 8 9 7 9 11 12 12 10 11 12 11 15 14 14 14 16 13 10 8
16 15 14 11 8 7 7 6 3 3 3 3 3 4 6 7 6 7 7 7 7 6 7 9 8 9 10 10 11 12 11 12 13 13 15 13 12 11 12 14 15 13 15
14 15 18 14 10 9 8 6 3 3 4 4 4 5 6 6 7 8 7 10 8 8 9 9 10 9 11 12 13 11 14 15 14 17 12 12 13 14 12 12 12 13 11
14 18 17 14 12 9 8 7 4 3 4 4 5 5 6 4 6 7 8 9 9 10 12 11 12 13 13 13 13 12 12 14 12 17 16 13 13 14 14 12 10 13 11
14 17 14 12 10 9 8 7 4 3 3 4 5 5 5 6 7 10 9 9 11 11 14 14 15 15 15 15 15 12 15 15 14 15 17 16 14 14 13 9 10 12 12
12 14 15 14 8 7 7 6 4 3 3 4 4 5 6 6 8 9 11 12 12 14 15 16 16 16 15 15 15 14 15 16 14 12 15 15 13 13 14 11 10 13 12
14 14 14 12 10 8 7 6 3 2 3 3 5 5 6 7 9 10 11 12 13 15 16 17 18 17 17 16 16 17 18 19 17 17 18 20 20 14 16 11 10 11 10
12 14 14 11 9 10 8 6 4 1 3 4 5 6 7 8 9 10 12 13 14 15 17 17 18 18 18 17 18 18 17 18 19 18 18 18 14 18 17 11 13 11 13
10 12 12 14 12 9 7 6 4 4 4 4 3 6 7 8 10 11 12 13 15 15 16 17 18 19 19 18 18 18 19 19 19 19 19 18 20 18 13 15 9 10 10
14 15 14 13 11 8 8 7 5 4 3 2 3 7 8 9 10 12 13 13 13 16 16 16 18 18 19 20 20 20 19 18 17 19 18 18 21 19 16 13 12 10 9
14 17 17 13 11 10 7 5 3 2 1 3 5 6 9 10 10 12 13 13 14 14 16 18 17 18 17 14 18 19 19 19 19 19 19 19 21 30 27 13 11 10 8
17 18 17 15 12 8 7 5 3 2 4 4 6 8 10 11 12 13 13 15 15 15 16 17 18 18 14 28 31 27 18 19 19 18 17 18 23 25 33 34 31 18 11
16 17 19 16 11 9 7 4 3 3 2 4 6 8 10 11 12 14 13 14 15 15 17 17 18 18 19 31 32 30 18 18 18 18 18 16 15 21 17 23 28 26 23
14 16 14 12 10 8 7 5 3 1 3 4 5 7 9 10 13 13 13 14 13 15 16 17 17 18 17 32 32 31 19 17 20 19 20 19 19 19 18 14 15 15 12
16 15 13 12 11 9 8 6 3 3 4 5 6 8 9 10 13 13 14 13 14 15 15 15 17 18 19 31 31 27 16 16 21 19 18 17 19 25 30 18 16 16 16
14 16 15 14 12 8 8 6 4 2 3 5 7 8 9 8 11 13 14 13 13 15 14 16 15 19 21 28 30 27 13 15 14 13 17 22 21 30 28 19 16 17 15
17 15 14 12 11 10 8 7 5 3 2 3 5 7 8 9 9 12 13 12 13 14 15 16 15 16 18 19 30 29 14 13 14 13 12 10 25 27 31 30 16 16 11
16 14 14 12 11 10 8 8 6 3 1 4 5 6 7 7 8 11 13 11 12 14 15 15 14 12 17 21 24 31 27 24 14 15 10 10 22 25 26 21 23 27 24
16 13 14 13 10 9 8 8 6 4 4 4 3 3 7 7 9 10 12 10 10 11 13 13 14 15 14 13 28 30 29 26 17 12 18 26 25 26 24 27 28 21 12
15 12 14 12 10 7 6 5 5 4 4 3 4 4 6 9 9 7 7 9 9 11 12 13 14 17 15 15 14 14 14 19 17 19 14 17 22 25 21 14 12 6 7
14 14 13 11 11 10 8 5 4 4 3 3 4 4 4 4 9 8 7 8 9 14 13 12 13 16 16 17 28 26 17 13 15 18 9 9 9 8 8 9 10 7 6
15 12 12 12 11 10 9 6 4 4 3 5 4 3 4 5 6 6 10 14 18 22 22 25 22 14 28 34 33 33 28 26 27 9 5 6 7 8 8 7 7 7 9
Wind_Direction
192 187 183 174 162 172 166 165 161 237 201 243 329 305 275 284 254 289 324 337 332 337 325 318 330 318 314 308 300 292 289 285 293 290 285 282 274 269 257 248 245 252 241
189 189 183 176 178 176 175 175 198 228 215 181 228 238 262 274 271 296 315 314 313 309 312 312 304 305 293 286 285 284 302 291 289 274 284 288 290 274 247 241 233 236 237
197 190 189 187 179 183 186 188 205 252 234 220 251 266 267 279 256 258 275 276 288 281 285 279 294 295 277 279 304 299 289 291 286 288 266 277 256 344 295 292 260 242 224
199 188 187 187 187 195 179 185 201 249 238 236 254 261 237 258 246 290 279 291 280 278 267 264 273 278 271 288 295 287 285 293 285 277 273 261 267 268 291 283 311 282 298
192 188 188 184 191 172 181 185 201 272 265 254 256 282 284 251 265 269 279 287 274 262 280 274 271 280 281 289 290 281 273 262 275 277 275 288 254 251 254 274 277 281 271
199 192 178 171 181 170 170 181 206 256 280 284 300 309 284 296 307 315 310 302 298 292 274 275 282 285 282 281 284 275 273 279 271 274 272 262 273 246 242 255 266 268 278
186 183 180 181 177 176 181 183 207 269 291 311 311 297 277 285 288 301 300 301 297 287 282 287 288 283 277 276 276 274 277 270 263 262 270 275 268 272 247 262 269 275 274
191 196 187 180 177 179 179 179 197 263 300 308 299 286 293 298 288 287 293 291 286 289 292 286 283 283 281 278 275 272 272 274 277 275 273 282 263 282 248 240 258 267 263
196 193 181 179 177 174 179 178 196 243 279 294 295 301 284 285 292 295 291 286 291 294 294 291 288 283 279 277 275 270 270 267 269 267 264 266 270 281 245 234 233 246 261
199 193 184 179 174 170 160 160 184 258 290 296 287 297 294 291 291 293 291 291 292 292 290 289 287 285 281 280 277 272 268 270 266 270 279 276 268 271 257 233 234 234 239
199 195 186 173 169 157 162 172 181 251 287 289 276 281 297 300 296 291 293 293 292 292 291 290 289 286 284 282 277 271 272 268 268 269 265 264 266 265 276 225 229 235 247
193 192 183 160 164 170 174 178 185 241 253 252 278 301 300 300 296 294 296 299 295 292 291 292 292 291 288 285 279 276 272 271 269 268 268 272 272 267 282 242 232 231 240
181 181 173 180 176 169 174 177 179 224 234 254 288 303 300 304 301 302 299 299 295 294 295 295 291 291 289 285 278 274 272 269 269 268 269 267 268 263 265 261 236 243 239
191 190 186 182 170 166 173 183 194 209 247 290 304 297 309 310 301 302 301 299 300 301 299 294 292 290 289 285 283 281 278 273 268 267 262 265 261 261 263 273 236 251 253
193 195 189 175 171 172 173 166 177 218 300 331 314 309 311 304 306 307 301 306 309 304 299 298 295 293 286 283 282 277 273 268 264 262 262 262 264 261 258 259 270 216 238
205 197 186 169 172 165 155 164 178 24 9 333 326 317 312 315 309 309 316 316 313 307 302 298 296 296 289 290 290 287 276 274 273 271 264 261 263 258 257 259 259 249 212
199 184 180 166 157 144 143 145 77 31 350 326 313 310 314 312 318 321 321 317 312 307 306 304 302 298 294 293 290 286 276 270 264 266 268 265 259 266 253 256 261 274 229
182 180 167 135 125 120 105 108 89 50 348 325 311 313 320 315 323 321 323 312 310 311 310 304 301 305 302 300 298 293 281 272 267 253 254 258 263 259 262 257 254 249 237
178 167 144 124 123 124 125 114 105 42 3 338 327 325 328 321 323 315 316 315 312 309 301 303 311 307 300 302 303 298 285 282 281 250 245 246 254 255 258 256 261 269 265
141 138 128 120 118 126 120 117 101 74 340 337 331 336 329 320 311 310 310 311 303 304 306 306 304 302 296 298 310 307 293 291 309 268 252 243 246 255 255 246 245 250 259
133 122 120 122 122 127 132 126 137 164 246 323 332 333 326 313 301 303 304 305 307 309 303 305 311 310 305 309 311 309 316 304 297 286 280 240 247 253 242 247 242 252 273
131 127 124 126 132 139 141 148 165 171 75 12 346 334 309 303 310 303 298 308 309 310 312 316 325 318 312 308 313 313 311 304 294 290 304 258 256 260 254 249 248 246 242
140 139 133 132 141 146 156 161 149 128 71 18 347 304 304 320 310 302 305 317 315 317 317 328 326 324 316 323 311 306 310 314 304 296 290 294 294 298 260 258 259 234 229
146 140 136 139 144 151 135 123 127 100 79 33 20 343 340 325 315 306 313 314 320 321 328 333 330 324 326 319 310 319 313 311 307 300 290 281 283 283 273 255 247 212 215
146 150 150 146 148 155 140 133 118 104 99 88 43 357 333 314 307 316 310 324 323 331 336 335 329 320 329 323 335 333 328 312 300 303 273 274 266 263 246 243 228 221 225
148 149 145 140 150 148 137 131 122 115 102 76 41 357 328 320 318 316 317 334 348 346 346 346 347 329 338 340 344 347 349 348 349 332 322 316 333 321 298 227 223 228 228